Regional Weather Roundup
Issued by NWS Kansas City/Pleasant Hill, MO

Home | Current Version | Previous Version | Text Only | Print | Product List | Glossary On
Versions: 1 2 3 4 5 6 7 8 9 10 11 12 13 14 15 16 17 18 19 20 21 22 23 24 25 26 27 28 29 30 31 32 33 34 35 36 37 38 39 40 41 42 43 44 45 46 47 48 49 50
000
ASUS43 KEAX 030511
RWREAX

WEATHER ROUNDUP FOR EASTERN KANSAS AND NORTHWEST MISSOURI
NATIONAL WEATHER SERVICE KANSAS CITY/PLEASANT HILL MO
1200 AM CDT WED SEP 03 2014

KSZ040-057-103>105-MOZ028-029-037-043-030600-
...KANSAS CITY METROPOLITAN AREA...

CITY           SKY/WX    TMP DP  RH WIND       PRES   REMARKS
K.C. INTL      CLEAR     69  66  90 SE9       29.98S
K.C. DOWNTOWN  CLEAR     75  69  81 S9        29.98R
LEES SUMMIT    CLEAR     72  69  90 S8        30.01R
OLATHE - IXD   CLEAR     71  68  90 SE8       30.00S
OLATHE - OJC   CLEAR     70  67  90 SE7       29.99S
LAWRENCE       PTCLDY    68  65  90 SE7       29.98S

$$

MOZ001>008-011>017-020>025-030>033-038>040-044>046-053-054-030600-
...NORTHERN AND CENTRAL MISSOURI...

CITY           SKY/WX    TMP DP  RH WIND       PRES   REMARKS
ST. JOSEPH     CLEAR     70  67  90 SE7       29.97S
MOSBY          CLEAR     68  68 100 CALM      29.99S FOG
WHITEMAN AFB   CLEAR     68  66  96 S6        30.01S
CLINTON        CLEAR     70  70 100 SE5       30.02S FOG
SEDALIA        CLEAR     69  66  90 S6        30.02S FOG
WARSAW         NOT AVBL
MARSHALL       CLEAR     70  70 100 S3        30.01F
CHILLICOTHE      N/A     66  64  93 CALM      30.00R
MOBERLY        CLEAR     68  64  88 S6        30.02R
KIRKSVILLE     CLEAR     64  62  93 SE3       30.01S

$$

MOZ041-047>049-056>058-063>065-088>090-097-030600-
...EASTERN AND SOUTHERN MISSOURI...

CITY           SKY/WX    TMP DP  RH WIND       PRES   REMARKS
ST. LOUIS INTL PTCLDY    72  67  84 CALM      30.04R
SPIRIT OF STL  FOG       66  66 100 CALM      30.02S VSB 3/4
COLUMBIA       CLEAR     69  68  96 S3        30.03R
JEFFERSON CITY CLEAR     67  66  97 CALM      30.01S FOG
MEXICO         CLEAR    N/A N/A N/A S3        30.02S
HANNIBAL       CLEAR     68  66  94 S6        30.02S
ROLLA          CLEAR     67  66  97 S8        30.04R FOG
LEBANON        CLOUDY    70  66  88 S5        30.06F
OSAGE BEACH    CLEAR     70  64  83 SE6       30.04S
SPRINGFIELD    CLEAR     69  66  90 SE8       30.03S
BRANSON        MOCLDY    68  66  94 CALM      30.06S
NEVADA         CLEAR     70  66  88 SE6       30.01S
JOPLIN         CLOUDY    74  68  81 SE9       30.00S
WEST PLAINS    PTCLDY    67  32  27 SW5       30.08R

$$

IAZ060-094-KSZ022-034>040-054-083-096-NEZ052-066-093-030600-
...KANSAS...SOUTHEAST NEBRASKA AND IOWA...

CITY           SKY/WX    TMP DP  RH WIND       PRES   REMARKS
TOPEKA         CLEAR     73  69  87 SE8       29.96F
MANHATTAN      CLEAR     74  69  85 SE9       29.94R
EMPORIA        CLEAR     71  68  90 SE10      29.96S
CHANUTE        CLOUDY    74  69  85 SE7       29.98S
WICHITA        MOCLDY    76  68  76 SE15      29.93S
OMAHA          CLEAR     69  57  65 S5        29.93F
LINCOLN        CLEAR     70  60  70 SE9       29.93F
FALLS CITY     CLEAR     67  64  90 SE3       29.95R
LAMONI         CLEAR     69  58  67 SE6       29.98S
DES MOINES     CLEAR     67  61  81 S3        29.96S

$$



USA.gov is the U.S. government's official web portal to all federal, state and local government web resources and services.